Temperature
11 11 10 10 10 9 8 7 7 6 6 5 5 4 3 3 2 2 2 1 1 1 0 -0 -1 -2 -4 -5 -6 -7 -7 -7 -8 -8 -8 -8 -8 -8 -8 -8 -8 -8 -8
11 10 10 9 9 8 7 7 6 6 5 5 4 3 2 2 2 1 1 1 1 0 -1 -1 -2 -4 -5 -6 -7 -7 -7 -8 -8 -8 -8 -8 -8 -8 -8 -8 -8 -8 -9
10 10 9 9 8 7 7 6 6 5 4 4 3 2 2 1 1 1 1 0 -0 -1 -2 -3 -4 -5 -6 -7 -7 -8 -8 -8 -8 -8 -8 -8 -8 -8 -8 -8 -9 -9 -9
9 9 8 8 7 7 6 5 5 4 3 3 2 1 1 1 1 0 -0 -1 -1 -2 -3 -4 -5 -6 -7 -8 -8 -8 -8 -8 -8 -8 -8 -8 -8 -8 -9 -9 -10 -10 -10
9 8 7 7 6 6 5 4 4 3 2 2 1 1 1 0 -0 -1 -1 -2 -3 -4 -5 -6 -7 -7 -8 -8 -8 -8 -8 -8 -8 -8 -8 -8 -9 -9 -10 -10 -10 -10 -10
8 7 7 6 5 5 4 3 3 2 1 1 0 0 0 -0 -1 -1 -2 -4 -5 -6 -6 -7 -8 -8 -8 -8 -8 -8 -8 -8 -8 -9 -9 -10 -10 -10 -10 -10 -11 -11 -10
7 6 6 5 4 3 3 2 2 1 0 0 -0 -0 -1 -1 -1 -2 -3 -5 -6 -7 -7 -8 -8 -8 -8 -8 -8 -8 -8 -9 -9 -9 -10 -10 -11 -10 -10 -10 -11 -11 -11
6 5 4 3 3 2 2 1 1 0 -0 -0 -1 -1 -1 -2 -2 -3 -4 -6 -7 -7 -8 -8 -8 -9 -9 -9 -9 -8 -9 -9 -10 -10 -10 -10 -10 -10 -11 -11 -11 -11 -11
4 4 3 2 2 1 1 0 -0 -0 -1 -1 -1 -1 -2 -2 -3 -4 -6 -7 -8 -8 -8 -9 -9 -9 -10 -9 -9 -9 -10 -10 -10 -10 -10 -10 -10 -10 -10 -11 -11 -12 -12
3 3 2 1 1 1 0 -0 -1 -1 -1 -1 -2 -2 -3 -3 -4 -5 -7 -8 -8 -8 -9 -9 -10 -10 -10 -9 -9 -10 -10 -10 -10 -10 -10 -9 -8 -9 -9 -10 -11 -12 -12
2 2 1 1 0 -0 -1 -1 -1 -1 -2 -2 -2 -3 -3 -4 -5 -6 -8 -9 -9 -9 -9 -9 -10 -10 -10 -10 -10 -10 -11 -10 -10 -10 -9 -9 -9 -9 -9 -9 -9 -11 -11
1 1 0 -0 -0 -1 -1 -1 -2 -2 -2 -3 -3 -3 -4 -5 -6 -7 -9 -9 -9 -10 -10 -10 -10 -10 -11 -11 -10 -10 -11 -11 -10 -10 -10 -10 -9 -9 -8 -8 -9 -9 -9
0 0 -0 -1 -1 -1 -1 -2 -2 -3 -3 -4 -4 -5 -5 -6 -7 -8 -9 -9 -10 -10 -10 -11 -11 -11 -11 -10 -10 -10 -10 -10 -11 -11 -11 -9 -9 -8 -8 -8 -8 -8 -8
-0 -0 -1 -1 -1 -2 -2 -3 -3 -3 -4 -5 -6 -7 -7 -7 -8 -9 -10 -10 -10 -10 -11 -11 -11 -10 -10 -10 -9 -9 -10 -10 -11 -11 -10 -9 -8 -8 -8 -9 -9 -9 -9
-1 -1 -1 -2 -2 -2 -3 -3 -4 -4 -5 -7 -7 -8 -9 -9 -10 -10 -10 -10 -11 -11 -11 -11 -10 -10 -10 -10 -9 -10 -10 -10 -9 -9 -9 -9 -8 -8 -8 -8 -9 -9 -10
-1 -2 -2 -2 -3 -3 -3 -4 -4 -5 -6 -7 -8 -8 -9 -9 -10 -10 -10 -10 -10 -11 -11 -10 -10 -10 -10 -10 -11 -10 -10 -9 -9 -9 -9 -8 -8 -9 -8 -8 -9 -9 -10
-2 -2 -2 -3 -3 -4 -4 -4 -4 -5 -6 -7 -7 -8 -9 -9 -9 -10 -10 -10 -10 -10 -10 -11 -11 -11 -11 -11 -11 -10 -10 -9 -9 -9 -8 -8 -8 -8 -8 -8 -9 -9 -9
-2 -3 -3 -4 -4 -5 -5 -5 -6 -6 -6 -7 -7 -8 -9 -9 -9 -10 -10 -10 -10 -10 -11 -11 -11 -11 -11 -11 -10 -10 -9 -9 -8 -8 -8 -8 -8 -8 -8 -9 -9 -9 -9
-3 -3 -4 -5 -5 -5 -6 -6 -7 -7 -8 -8 -9 -9 -9 -9 -9 -10 -10 -10 -11 -11 -11 -11 -11 -11 -11 -10 -10 -9 -9 -8 -8 -8 -8 -8 -8 -8 -8 -8 -8 -8 -9
-4 -4 -5 -5 -6 -6 -6 -7 -7 -8 -9 -9 -9 -9 -10 -10 -10 -10 -10 -10 -11 -11 -11 -11 -11 -10 -10 -10 -9 -9 -8 -8 -8 -8 -8 -8 -8 -8 -8 -8 -8 -8 -8
-5 -5 -5 -6 -6 -6 -7 -7 -8 -9 -9 -10 -10 -10 -11 -11 -10 -10 -10 -11 -11 -11 -11 -11 -10 -10 -10 -9 -9 -8 -8 -8 -8 -8 -8 -8 -8 -8 -8 -8 -8 -8 -8
-5 -6 -6 -6 -6 -7 -8 -8 -9 -10 -10 -10 -10 -10 -10 -10 -10 -10 -11 -11 -11 -11 -11 -11 -10 -10 -9 -9 -8 -8 -8 -7 -7 -8 -7 -7 -7 -8 -7 -7 -7 -7 -7
-6 -6 -6 -7 -7 -8 -8 -9 -10 -10 -10 -11 -11 -11 -10 -10 -10 -11 -11 -11 -11 -10 -10 -10 -10 -9 -9 -8 -8 -8 -7 -7 -7 -7 -7 -7 -7 -7 -7 -7 -7 -7 -7
-6 -6 -7 -7 -8 -9 -9 -10 -10 -11 -11 -11 -11 -11 -11 -11 -11 -11 -11 -10 -10 -10 -10 -10 -9 -9 -8 -8 -8 -7 -7 -7 -7 -7 -7 -7 -7 -7 -7 -7 -7 -7 -7
-7 -7 -8 -8 -9 -9 -10 -10 -11 -11 -11 -11 -11 -11 -11 -11 -11 -11 -10 -10 -10 -10 -9 -9 -9 -8 -8 -8 -7 -7 -7 -7 -7 -7 -7 -7 -7 -7 -7 -7 -6 -7 -7
-7 -8 -8 -9 -10 -10 -11 -11 -11 -11 -11 -11 -11 -11 -11 -11 -11 -10 -10 -10 -10 -9 -9 -9 -8 -8 -8 -7 -7 -7 -7 -7 -7 -7 -7 -7 -7 -7 -6 -6 -6 -6 -7
Wind_Speed
12 13 13 12 12 11 10 9 8 7 7 7 5 4 3 3 3 3 4 5 6 7 6 7 8 8 6 6 6 6 8 9 15 16 11 10 10 11 12 14 18 15 16
13 14 13 12 12 11 9 8 8 8 7 6 5 4 4 4 4 4 5 6 7 8 8 8 9 8 8 7 6 8 9 10 12 19 16 13 13 12 12 11 13 13 12
14 14 13 12 11 10 9 8 8 7 7 6 5 4 4 5 5 5 6 7 7 7 8 8 9 9 9 8 9 10 10 11 10 15 18 15 13 12 12 12 13 12 16
14 14 12 10 10 9 8 8 7 7 7 5 4 4 4 5 5 6 6 6 5 6 7 8 9 9 10 10 10 10 9 10 11 13 15 15 13 10 10 14 16 10 13
14 13 11 9 9 9 8 8 7 7 6 4 4 4 5 5 5 7 6 4 4 6 7 8 9 13 15 14 13 11 11 12 14 14 14 14 13 14 15 15 18 18 14
13 12 10 10 9 8 8 7 7 6 5 4 4 5 6 5 11 14 12 4 4 6 8 9 10 11 16 22 25 24 22 18 14 11 12 16 18 17 16 17 18 20 19
12 11 10 9 9 8 8 7 6 4 3 4 4 5 5 8 13 15 16 9 5 7 9 10 11 13 18 13 20 24 18 20 21 16 17 18 19 18 19 21 19 19 20
12 10 9 9 9 7 7 6 4 3 3 3 4 5 6 8 15 16 18 8 7 9 10 11 12 12 14 18 15 12 9 12 17 14 13 15 16 15 16 18 19 19 18
11 10 9 9 8 7 7 5 3 3 3 3 4 6 7 9 15 17 18 7 7 9 10 10 12 11 22 27 17 13 13 13 20 23 24 24 28 28 22 15 14 15 18
10 9 8 8 8 7 6 4 2 2 2 4 5 6 7 8 14 18 18 6 7 8 7 8 15 20 25 26 15 12 14 16 16 16 17 20 18 19 22 13 13 15 16
11 10 9 8 8 7 5 3 2 3 4 5 6 6 7 9 13 17 19 9 9 10 10 8 9 24 26 25 21 11 18 20 14 14 14 14 13 11 12 11 12 13 15
11 10 9 7 6 5 5 3 3 4 5 5 5 7 6 7 11 15 20 19 18 11 11 9 13 25 25 23 18 20 24 20 11 12 13 13 12 13 13 14 15 14 15
11 9 8 7 6 5 4 4 3 3 3 5 5 6 7 6 9 18 20 21 22 13 11 20 23 23 21 16 19 22 18 11 12 12 13 13 11 12 13 13 13 14 15
10 8 6 6 5 4 3 3 2 3 4 5 5 6 7 7 7 8 8 10 15 14 11 15 20 19 17 18 16 14 10 11 12 12 13 14 13 11 12 12 14 14 14
9 7 6 5 4 3 3 2 3 3 5 6 4 5 8 7 11 20 15 11 11 12 14 7 8 10 10 11 11 11 11 12 12 12 13 14 14 13 13 12 11 13 13
7 5 4 3 3 3 3 4 6 7 11 12 12 12 10 14 20 20 20 21 21 21 14 10 10 10 11 13 13 14 13 12 12 12 12 12 13 13 14 13 12 12 13
7 5 4 3 3 3 3 4 5 7 9 11 13 16 16 19 19 20 20 20 18 17 10 9 9 11 12 12 12 12 13 13 12 12 12 12 12 12 12 13 13 12 12
7 6 4 2 2 2 3 4 4 6 8 7 11 16 18 19 19 19 20 16 11 11 9 9 10 11 12 12 12 13 13 13 12 12 13 12 12 12 12 12 12 13 13
5 3 3 2 2 3 3 4 4 5 7 7 7 10 16 18 18 17 16 9 10 10 11 10 11 11 12 12 12 13 13 13 13 13 13 13 12 11 12 12 12 16 13
4 4 3 2 2 3 4 4 4 5 6 7 8 9 10 11 9 11 10 9 9 10 11 11 12 12 12 12 13 13 13 13 14 13 13 12 12 11 12 13 12 11 10
3 3 4 3 3 3 4 4 5 6 6 7 7 11 16 10 9 10 10 10 10 11 11 12 13 13 12 12 12 13 15 14 13 13 12 12 12 12 11 11 11 10 8
2 2 2 3 3 4 4 4 5 6 7 8 8 10 16 10 8 9 10 10 11 11 11 12 12 12 12 12 13 13 14 15 14 13 13 13 12 12 11 10 9 8 7
2 2 2 3 3 6 6 5 6 6 7 7 9 9 10 9 9 9 10 11 11 12 12 11 12 13 12 12 12 13 14 14 14 15 15 14 11 10 9 8 9 8 6
2 2 3 3 4 4 5 5 6 7 7 8 8 9 10 10 10 11 11 10 11 11 12 12 13 16 20 17 13 13 13 15 16 15 14 10 9 8 8 8 7 7 6
2 3 3 4 4 5 5 6 6 6 8 9 9 10 10 10 11 10 10 10 12 13 15 15 12 13 18 22 21 17 23 28 23 11 8 8 9 9 8 7 6 5 4
2 3 4 4 5 5 5 6 6 7 9 9 9 9 10 10 10 10 11 11 11 13 14 14 14 18 21 19 21 25 28 26 19 16 9 6 8 7 7 5 6 4 4
Wind_Direction
120 118 118 115 113 110 110 112 110 103 98 92 84 68 41 18 360 355 331 318 316 307 302 294 283 272 257 249 249 258 261 266 284 295 295 295 289 284 288 283 283 280 281
121 118 116 116 113 110 110 111 110 104 95 90 80 60 28 6 353 344 327 325 314 307 304 302 294 294 271 261 262 264 266 264 277 294 301 303 297 292 289 285 294 288 280
121 119 118 116 113 112 114 113 108 102 91 79 68 46 14 350 337 327 316 311 309 310 310 306 301 298 289 278 270 272 272 279 278 290 297 299 296 297 297 295 288 283 287
122 121 120 118 118 119 116 110 104 98 88 74 58 34 2 338 326 315 309 307 318 320 312 304 302 298 287 280 282 275 284 290 288 289 293 297 300 300 300 304 304 292 291
123 122 121 120 118 116 110 105 97 89 82 70 51 22 360 339 320 313 303 297 307 310 304 297 298 306 311 310 310 309 306 301 300 299 302 308 308 310 309 308 305 304 294
125 124 125 123 117 113 109 104 94 83 70 52 33 9 352 336 323 326 324 292 285 299 301 295 295 298 308 317 313 309 307 307 311 310 310 307 305 306 306 305 305 304 303
123 125 126 121 115 112 109 99 89 80 59 38 14 352 329 319 329 328 322 321 296 294 293 296 307 311 316 302 301 305 307 308 309 306 302 301 302 304 304 304 302 300 299
123 123 122 117 113 109 101 93 85 68 45 20 345 332 327 327 334 327 323 328 297 287 288 291 297 298 301 305 305 309 297 295 300 303 294 295 298 300 300 301 300 299 296
123 122 120 118 115 109 101 92 77 56 27 344 328 334 330 322 329 327 327 306 293 292 293 297 307 304 307 313 318 312 308 309 312 308 305 306 307 307 307 306 306 305 303
123 117 113 113 113 111 107 95 73 55 357 340 335 328 318 310 323 329 328 305 301 303 300 298 315 317 314 320 321 317 316 312 313 315 314 309 303 300 306 305 303 302 303
113 108 104 106 111 113 105 96 74 36 6 350 329 319 312 314 326 329 328 329 318 319 319 315 311 318 320 324 325 320 311 317 324 318 310 306 304 304 305 301 296 295 297
109 106 105 105 108 108 102 84 57 28 1 338 323 317 303 303 322 326 331 330 328 323 319 315 314 322 326 328 326 318 321 327 320 311 309 309 309 307 307 305 300 294 287
109 109 109 101 91 89 81 60 35 9 345 322 313 309 311 310 318 328 329 328 328 326 315 317 321 326 329 327 320 323 328 322 313 313 312 308 303 298 303 307 305 301 295
114 114 112 104 90 68 51 31 13 341 321 309 306 312 313 316 313 311 311 318 324 322 312 317 325 327 327 325 323 322 318 313 316 313 309 307 308 307 311 313 314 316 314
113 113 106 96 88 55 24 354 330 287 284 310 304 308 321 318 319 326 329 325 326 321 326 325 324 327 327 325 323 321 321 320 318 313 311 311 312 314 314 315 311 314 314
118 112 103 92 70 45 8 336 325 321 324 328 329 327 322 321 324 329 330 331 332 332 334 326 324 324 323 323 322 321 319 318 316 313 309 308 310 311 313 314 314 314 315
114 110 94 74 50 16 349 331 323 324 325 330 334 334 331 329 330 333 335 336 336 337 332 322 321 322 319 317 316 315 314 312 310 308 307 307 307 308 310 312 315 316 316
93 86 83 64 22 341 320 309 306 315 323 324 330 332 333 332 332 336 339 340 333 335 327 323 320 317 315 314 314 313 311 311 311 310 308 306 306 307 309 310 312 313 315
83 72 68 37 349 319 306 302 304 308 312 313 316 324 331 329 332 337 343 336 326 326 324 321 317 314 312 312 310 309 307 307 306 307 305 304 305 306 306 307 308 312 316
64 49 53 14 330 314 309 309 313 314 315 316 319 323 322 325 332 333 334 327 324 321 320 318 314 310 310 309 308 308 308 307 307 305 304 304 304 303 303 305 306 310 313
62 18 4 353 322 313 310 310 314 315 314 316 315 318 328 334 326 321 323 323 322 320 318 315 310 308 308 307 306 306 305 304 303 303 302 303 303 303 302 301 303 306 311
55 352 327 315 314 314 313 318 316 312 313 313 313 316 326 328 317 317 318 318 318 316 312 309 305 303 303 304 305 305 303 302 303 303 303 301 300 298 297 300 307 315 317
36 346 333 331 326 325 326 317 314 310 309 310 314 318 321 321 319 316 315 316 315 312 309 306 303 303 303 303 301 298 296 296 297 295 295 296 296 296 300 309 316 322 324
24 353 338 328 318 312 313 312 312 312 313 312 314 315 317 317 315 314 313 310 310 307 305 304 302 301 302 307 307 303 297 295 295 293 294 302 308 309 310 315 320 327 330
18 350 334 319 311 308 309 306 303 304 311 315 315 314 314 313 311 310 309 308 307 306 305 306 304 305 307 309 308 306 305 310 315 322 321 315 309 309 312 318 327 338 350
354 334 318 307 301 299 300 302 305 311 313 311 309 308 309 309 309 308 307 306 308 308 307 307 306 309 310 309 307 309 314 320 332 342 340 315 313 317 325 327 342 358 9
Height
1452 1457 1463 1468 1472 1475 1478 1480 1482 1482 1481 1481 1480 1479 1478 1475 1473 1471 1469 1466 1464 1461 1457 1453 1449 1444 1440 1436 1432 1428 1424 1418 1407 1394 1391 1387 1382 1378 1374 1371 1366 1361 1356
1451 1457 1462 1466 1470 1473 1476 1478 1479 1478 1478 1477 1477 1476 1474 1472 1469 1467 1464 1462 1459 1455 1451 1446 1441 1437 1433 1429 1425 1421 1416 1411 1403 1392 1384 1379 1374 1370 1365 1361 1357 1352 1347
1450 1456 1461 1465 1469 1472 1474 1475 1475 1475 1475 1474 1473 1472 1470 1468 1466 1463 1460 1457 1453 1449 1444 1439 1434 1429 1425 1421 1417 1413 1408 1403 1398 1389 1380 1373 1367 1363 1357 1351 1346 1340 1335
1450 1455 1460 1464 1467 1470 1471 1472 1472 1472 1471 1470 1469 1468 1466 1464 1462 1459 1455 1451 1447 1442 1438 1433 1427 1423 1418 1414 1410 1406 1402 1396 1390 1382 1374 1367 1361 1355 1350 1342 1333 1327 1321
1450 1454 1459 1462 1465 1467 1468 1469 1469 1469 1468 1467 1466 1465 1463 1460 1457 1454 1449 1445 1440 1436 1431 1427 1421 1417 1413 1409 1405 1400 1395 1389 1382 1375 1368 1361 1354 1348 1341 1334 1325 1316 1309
1449 1453 1457 1460 1463 1464 1466 1466 1466 1466 1465 1464 1463 1461 1459 1456 1453 1449 1444 1439 1434 1430 1425 1420 1416 1412 1407 1403 1399 1394 1390 1384 1376 1370 1362 1355 1347 1341 1334 1327 1319 1310 1298
1448 1452 1455 1458 1460 1462 1463 1463 1463 1463 1462 1461 1459 1457 1455 1451 1447 1443 1438 1434 1429 1425 1420 1415 1411 1406 1402 1396 1390 1386 1382 1377 1373 1367 1357 1349 1342 1335 1328 1320 1313 1305 1296
1447 1451 1454 1456 1458 1460 1461 1461 1461 1460 1459 1458 1456 1453 1450 1446 1442 1437 1433 1428 1424 1420 1416 1411 1405 1399 1394 1390 1384 1378 1373 1368 1363 1357 1351 1343 1336 1330 1323 1316 1307 1297 1288
1446 1450 1453 1455 1457 1458 1459 1459 1458 1458 1456 1454 1452 1448 1445 1441 1437 1432 1428 1423 1419 1415 1410 1405 1400 1395 1389 1385 1379 1371 1364 1358 1353 1348 1343 1337 1330 1323 1316 1309 1301 1292 1280
1446 1449 1452 1454 1455 1456 1457 1456 1456 1454 1453 1451 1448 1444 1440 1436 1432 1428 1423 1419 1413 1408 1404 1399 1395 1389 1384 1379 1372 1365 1357 1350 1345 1338 1333 1327 1322 1316 1310 1304 1296 1287 1277
1446 1448 1451 1453 1454 1455 1454 1454 1453 1451 1449 1447 1444 1441 1437 1432 1427 1423 1419 1415 1409 1403 1398 1393 1388 1383 1378 1373 1367 1359 1353 1348 1340 1333 1326 1320 1314 1309 1303 1298 1291 1283 1274
1445 1448 1450 1452 1452 1452 1452 1451 1450 1448 1445 1442 1439 1437 1433 1428 1423 1418 1415 1411 1406 1400 1394 1388 1382 1377 1372 1366 1360 1354 1349 1343 1335 1327 1321 1315 1309 1303 1296 1290 1283 1277 1269
1446 1448 1449 1450 1451 1451 1450 1449 1447 1444 1442 1438 1435 1431 1427 1423 1419 1415 1410 1406 1401 1396 1390 1384 1378 1372 1366 1360 1355 1350 1344 1337 1330 1324 1317 1311 1305 1298 1291 1283 1276 1269 1261
1446 1447 1448 1449 1449 1449 1448 1446 1444 1441 1438 1435 1431 1426 1422 1418 1414 1410 1405 1401 1396 1390 1384 1378 1373 1367 1362 1356 1351 1345 1339 1333 1328 1321 1314 1308 1301 1294 1287 1279 1271 1263 1253
1445 1446 1447 1447 1447 1446 1445 1443 1441 1438 1435 1432 1427 1423 1419 1414 1411 1408 1403 1397 1392 1386 1380 1373 1368 1362 1356 1351 1346 1340 1335 1329 1324 1318 1311 1304 1297 1290 1283 1276 1269 1261 1253
1444 1445 1446 1446 1445 1444 1443 1441 1438 1436 1433 1429 1425 1422 1417 1413 1408 1403 1399 1393 1387 1382 1376 1370 1364 1359 1354 1348 1342 1336 1331 1326 1320 1314 1308 1302 1294 1287 1280 1273 1267 1260 1252
1444 1444 1444 1444 1443 1442 1440 1438 1435 1433 1431 1427 1423 1418 1414 1409 1404 1399 1394 1389 1383 1378 1372 1367 1362 1357 1352 1346 1340 1334 1328 1322 1317 1311 1305 1299 1292 1285 1278 1271 1264 1258 1251
1443 1443 1443 1442 1441 1440 1437 1435 1432 1428 1425 1422 1419 1415 1410 1405 1400 1395 1390 1384 1379 1374 1369 1364 1359 1355 1350 1344 1337 1331 1325 1319 1313 1308 1302 1296 1289 1282 1275 1270 1264 1258 1251
1443 1443 1442 1441 1439 1437 1435 1432 1430 1426 1422 1418 1414 1410 1406 1401 1397 1392 1386 1381 1375 1370 1366 1361 1357 1352 1347 1341 1335 1328 1322 1316 1311 1305 1299 1292 1286 1280 1274 1268 1263 1257 1252
1442 1442 1441 1439 1437 1435 1433 1430 1427 1423 1419 1415 1410 1406 1401 1396 1392 1387 1382 1377 1373 1368 1363 1358 1354 1349 1344 1338 1331 1325 1319 1313 1307 1301 1295 1289 1283 1278 1273 1267 1262 1257 1252
1441 1440 1439 1437 1435 1433 1430 1427 1423 1419 1415 1411 1408 1404 1399 1394 1389 1384 1379 1374 1370 1365 1360 1355 1350 1346 1340 1334 1328 1322 1317 1311 1305 1298 1292 1286 1281 1276 1271 1266 1262 1257 1252
1440 1439 1437 1435 1433 1430 1427 1423 1420 1416 1412 1408 1404 1400 1396 1391 1386 1381 1376 1371 1367 1362 1357 1353 1348 1343 1337 1331 1325 1320 1314 1308 1302 1296 1290 1285 1280 1275 1270 1266 1261 1257 1252
1438 1437 1435 1432 1430 1426 1423 1420 1416 1412 1408 1404 1400 1395 1391 1387 1382 1377 1373 1368 1363 1359 1355 1350 1345 1340 1335 1329 1324 1318 1312 1306 1300 1294 1288 1283 1279 1274 1270 1266 1261 1257 1253
1436 1434 1432 1429 1426 1422 1419 1416 1412 1408 1404 1400 1395 1391 1387 1382 1378 1374 1369 1364 1360 1356 1352 1347 1342 1337 1332 1327 1322 1317 1311 1304 1298 1293 1289 1284 1279 1274 1270 1266 1262 1258 1254
1433 1431 1428 1425 1422 1418 1415 1411 1407 1404 1399 1395 1391 1387 1383 1378 1374 1370 1365 1361 1357 1353 1349 1345 1340 1334 1329 1324 1320 1314 1309 1303 1298 1293 1288 1283 1279 1274 1270 1266 1262 1259 1255
1430 1427 1424 1421 1417 1414 1410 1406 1403 1399 1395 1391 1387 1383 1378 1374 1370 1366 1362 1358 1354 1350 1346 1342 1337 1332 1327 1322 1318 1312 1307 1301 1297 1292 1287 1282 1278 1274 1270 1267 1263 1260 1258